SV1BIX Weather Reports


time (UTC)temp
F
wind
direction
speed
knots
gust
knots
rain 1hr
in
rain 24hr
in
rain mn
in
humidity
%
barometer
mb
20260504081603 61 200 0.0 5.2 0.00 0.00 0.00 45 1020.7
20260504050015 53 200 0.0 0.0 0.00 0.01 0.00 64 1020.0
20260504044600 51 200 0.0 0.9 0.00 0.01 0.00 65 1019.8
20260504043115 50 200 0.0 0.0 0.00 0.01 0.00 68 1019.7
20260504041558 49 200 0.0 0.0 0.00 0.01 0.00 69 1019.7
20260504040157 49 200 0.0 0.0 0.00 0.01 0.00 69 1019.6
20260504034555 0 0.0 0.0 0.00 0.01 0.00 1019.5
20260504033104 0 0.0 0.0 0.00 0.01 0.00 1019.4
20260504031557 0 0.0 0.0 0.00 0.01 0.00 1019.4
20260504024528 49 200 0.0 0.0 0.00 0.01 0.00 66 1019.5
20260504023026 49 200 0.0 0.0 0.00 0.01 0.00 66 1019.3
20260504021510 50 200 0.0 1.7 0.00 0.01 0.00 65 1019.4
20260504020006 50 200 0.0 0.9 0.00 0.01 0.00 64 1019.5
20260504014604 50 200 0.0 0.9 0.00 0.01 0.00 63 1019.6
20260504013056 51 200 0.0 0.0 0.00 0.01 0.00 62 1019.5
20260504011553 51 200 0.0 0.9 0.00 0.01 0.00 62 1019.5
20260504010059 51 200 0.0 3.5 0.00 0.01 0.00 62 1019.5
20260504004552 50 200 0.0 0.9 0.00 0.01 0.00 62 1019.5
20260504003051 51 200 2.6 5.2 0.00 0.01 0.00 61 1019.4
20260504001557 51 200 0.0 0.9 0.00 0.01 0.00 61 1019.4
20260504000054 50 199 0.0 0.9 0.00 0.01 0.00 64 1019.5
20260503234539 50 200 0.0 0.0 0.00 0.01 0.00 65 1019.5
20260503233034 50 200 0.0 0.0 0.00 0.01 0.00 65 1019.6
20260503231533 50 200 0.0 0.0 0.00 0.01 0.00 63 1019.6
20260503230030 50 200 0.0 0.0 0.00 0.02 0.00 62 1019.6
20260503224529 51 200 0.0 0.9 0.00 0.02 0.00 62 1019.5
20260503223028 51 200 0.0 2.6 0.00 0.02 0.00 62 1019.4
20260503221528 51 200 0.0 6.1 0.00 0.02 0.00 61 1019.5
20260503220031 52 200 0.9 6.1 0.00 0.02 0.00 61 1019.6
20260503214533 52 199 0.0 0.9 0.00 0.02 0.00 60 1019.6
20260503213031 52 200 0.0 0.9 0.00 0.02 0.00 60 1019.7
20260503211513 52 200 0.0 0.9 0.00 0.02 0.00 61 1019.6
20260503210014 52 199 0.0 0.9 0.00 0.02 0.02 61 1019.7
20260503204509 52 200 0.0 0.9 0.00 0.02 0.02 61 1019.8
20260503203008 52 200 0.0 0.9 0.00 0.02 0.02 61 1019.8
20260503201505 52 200 2.6 7.8 0.00 0.02 0.02 60 1019.9
20260503200005 53 200 0.0 1.7 0.00 0.02 0.02 60 1019.8
20260503194502 53 200 0.0 0.9 0.00 0.02 0.02 59 1019.8
20260503193005 53 200 3.5 10.4 0.00 0.02 0.02 58 1019.7
20260503191554 53 200 3.5 8.7 0.00 0.02 0.02 57 1019.7
20260503190047 53 200 2.6 10.4 0.00 0.02 0.02 57 1019.5
20260503184545 53 200 0.0 8.7 0.00 0.02 0.02 57 1019.4
20260503183050 53 200 0.0 0.9 0.00 0.02 0.02 57 1019.2
20260503181557 53 200 2.6 7.0 0.00 0.02 0.02 57 1019.0
20260503180047 54 200 0.0 1.7 0.00 0.02 0.02 57 1018.9
20260503174537 54 203 4.3 11.3 0.00 0.02 0.02 56 1018.6
20260503173040 54 201 0.0 1.7 0.00 0.02 0.02 55 1018.5
20260503171535 55 200 0.0 1.7 0.00 0.02 0.02 54 1018.4